| time (UTC) | temp C | wind direction | speed KPH | gust KPH | rain 1hr cm | rain 24hr cm | rain mn cm | humidity % | barometer mb |
| 20260506103042 | 16 | 257 | 0.0 | 1.6 | 0.00 | 0.00 | 0.00 | 32 | 1005.9 |
| 20260506101539 | 16 | 257 | 0.0 | 3.2 | 0.00 | 0.00 | 0.00 | 32 | 1005.5 |
| 20260506100038 | 16 | 256 | 0.0 | 3.2 | 0.00 | 0.00 | 0.00 | 32 | 1005.4 |
| 20260506094535 | 17 | 256 | 0.0 | 3.2 | 0.00 | 0.00 | 0.00 | 32 | 1005.3 |
| 20260506093033 | 17 | 256 | 0.0 | 3.2 | 0.00 | 0.00 | 0.00 | 31 | 1005.2 |
| 20260506091530 | 17 | 256 | 0.0 | 3.2 | 0.00 | 0.00 | 0.00 | 31 | 1005.1 |
| 20260506090026 | 18 | 256 | 0.0 | 6.4 | 0.00 | 0.00 | 0.00 | 29 | 1004.9 |
| 20260506084534 | 18 | 248 | 0.0 | 6.4 | 0.00 | 0.00 | 0.00 | 27 | 1004.7 |
| 20260506083025 | 18 | 242 | 0.0 | 6.4 | 0.00 | 0.00 | 0.00 | 24 | 1004.6 |
| 20260506081520 | 18 | 238 | 0.0 | 3.2 | 0.00 | 0.00 | 0.00 | 25 | 1004.6 |
| 20260506073015 | 20 | 238 | 0.0 | 8.0 | 0.00 | 0.00 | 0.00 | 24 | 1004.8 |
| 20260506071512 | 20 | 237 | 0.0 | 8.0 | 0.00 | 0.00 | 0.00 | 23 | 1004.6 |
| 20260506061507 | 21 | 244 | 0.0 | 4.8 | 0.00 | 0.00 | 0.00 | 21 | 1004.4 |
| 20260506044503 | 21 | 237 | 0.0 | 6.4 | 0.00 | 0.00 | 0.00 | 19 | 1003.7 |
| 20260506043101 | 22 | 242 | 1.6 | 12.9 | 0.00 | 0.00 | 0.00 | 19 | 1003.6 |
| 20260506041605 | 22 | 245 | 0.0 | 4.8 | 0.00 | 0.00 | 0.00 | 18 | 1003.5 |
| 20260506040059 | 22 | 242 | 0.0 | 8.0 | 0.00 | 0.00 | 0.00 | 17 | 1003.3 |
| 20260506034602 | 22 | 241 | 0.0 | 6.4 | 0.00 | 0.00 | 0.00 | 16 | 1003.0 |
| 20260506033058 | 22 | 246 | 1.6 | 6.4 | 0.00 | 0.00 | 0.00 | 15 | 1002.7 |
| 20260506031557 | 23 | 233 | 1.6 | 12.9 | 0.00 | 0.00 | 0.00 | 16 | 1002.4 |
| 20260506030057 | 23 | 240 | 1.6 | 8.0 | 0.00 | 0.00 | 0.00 | 18 | 1002.1 |
| 20260506024606 | 23 | 233 | 3.2 | 16.1 | 0.00 | 0.00 | 0.00 | 18 | 1002.0 |
| 20260506023108 | 23 | 242 | 3.2 | 11.3 | 0.00 | 0.00 | 0.00 | 20 | 1001.8 |
| 20260506021554 | 23 | 242 | 4.8 | 12.9 | 0.00 | 0.00 | 0.00 | 19 | 1001.5 |
| 20260506020056 | 23 | 238 | 3.2 | 14.5 | 0.00 | 0.00 | 0.00 | 18 | 1001.3 |
| 20260506014553 | 24 | 234 | 6.4 | 20.9 | 0.00 | 0.00 | 0.00 | 19 | 1001.0 |
| 20260506013056 | 24 | 243 | 1.6 | 14.5 | 0.00 | 0.00 | 0.00 | 19 | 1000.9 |
| 20260506011551 | 24 | 236 | 3.2 | 17.7 | 0.00 | 0.00 | 0.00 | 19 | 1000.8 |
| 20260506010050 | 24 | 245 | 1.6 | 27.4 | 0.00 | 0.00 | 0.00 | 19 | 1000.6 |
| 20260506004552 | 25 | 238 | 3.2 | 19.3 | 0.00 | 0.00 | 0.00 | 19 | 1000.5 |
| 20260506003052 | 25 | 242 | 6.4 | 19.3 | 0.00 | 0.00 | 0.00 | 19 | 1000.5 |
| 20260506001555 | 25 | 230 | 4.8 | 12.9 | 0.00 | 0.00 | 0.00 | 22 | 1000.6 |
| 20260506000052 | 25 | 236 | 0.0 | 6.4 | 0.00 | 0.00 | 0.00 | 26 | 1000.5 |
| 20260505234546 | 24 | 232 | 0.0 | 8.0 | 0.00 | 0.00 | 0.00 | 27 | 1000.6 |
| 20260505233051 | 25 | 237 | 4.8 | 16.1 | 0.00 | 0.00 | 0.00 | 27 | 1000.7 |
| 20260505231547 | 25 | 238 | 3.2 | 12.9 | 0.00 | 0.00 | 0.00 | 27 | 1000.8 |
| 20260505230108 | 25 | 246 | 1.6 | 12.9 | 0.00 | 0.00 | 0.00 | 27 | 1000.9 |
| 20260505224541 | 25 | 261 | 0.0 | 8.0 | 0.00 | 0.00 | 0.00 | 28 | 1001.1 |
| 20260505223044 | 25 | 237 | 6.4 | 22.5 | 0.00 | 0.00 | 0.00 | 28 | 1001.2 |
| 20260505221544 | 26 | 237 | 0.0 | 9.7 | 0.00 | 0.00 | 0.00 | 27 | 1001.4 |
| 20260505220049 | 26 | 244 | 1.6 | 16.1 | 0.00 | 0.00 | 0.00 | 27 | 1001.8 |
| 20260505214536 | 25 | 235 | 4.8 | 17.7 | 0.00 | 0.00 | 0.00 | 27 | 1001.7 |
| 20260505213034 | 25 | 244 | 1.6 | 14.5 | 0.00 | 0.00 | 0.00 | 28 | 1002.1 |
| 20260505211531 | 26 | 243 | 0.0 | 8.0 | 0.00 | 0.00 | 0.00 | 27 | 1002.2 |
| 20260505210026 | 25 | 238 | 4.8 | 14.5 | 0.00 | 0.00 | 0.00 | 28 | 1002.4 |
| 20260505204526 | 25 | 240 | 1.6 | 11.3 | 0.00 | 0.00 | 0.00 | 29 | 1002.5 |
| 20260505203026 | 25 | 291 | 0.0 | 8.0 | 0.00 | 0.00 | 0.00 | 28 | 1002.8 |
| 20260505201626 | 25 | 294 | 1.6 | 14.5 | 0.00 | 0.00 | 0.00 | 28 | 1003.0 |
| 20260505200033 | 25 | 240 | 1.6 | 16.1 | 0.00 | 0.00 | 0.00 | 28 | 1003.2 |
| 20260505194518 | 24 | 246 | 0.0 | 12.9 | 0.00 | 0.00 | 0.00 | 29 | 1003.3 |
| 20260505193016 | 22 | 245 | 0.0 | 17.7 | 0.00 | 0.00 | 0.00 | 31 | 1003.5 |
| 20260505191524 | 22 | 242 | 4.8 | 14.5 | 0.00 | 0.00 | 0.00 | 31 | 1003.8 |
| 20260505190018 | 22 | 240 | 6.4 | 19.3 | 0.00 | 0.00 | 0.00 | 30 | 1003.6 |
| 20260505184514 | 23 | 190 | 6.4 | 17.7 | 0.00 | 0.00 | 0.00 | 30 | 1003.4 |
| 20260505183014 | 22 | 213 | 4.8 | 12.9 | 0.00 | 0.00 | 0.00 | 31 | 1003.8 |
| 20260505181517 | 23 | 227 | 4.8 | 9.7 | 0.00 | 0.00 | 0.00 | 30 | 1003.9 |
| 20260505180012 | 23 | 233 | 1.6 | 9.7 | 0.00 | 0.00 | 0.00 | 31 | 1003.7 |
| 20260505174508 | 23 | 234 | 0.0 | 11.3 | 0.00 | 0.00 | 0.00 | 32 | 1004.0 |
| 20260505173011 | 22 | 237 | 3.2 | 14.5 | 0.00 | 0.00 | 0.00 | 32 | 1004.0 |
| 20260505171507 | 22 | 234 | 1.6 | 12.9 | 0.00 | 0.00 | 0.00 | 33 | 1003.8 |
| 20260505170004 | 21 | 259 | 0.0 | 6.4 | 0.00 | 0.00 | 0.00 | 34 | 1003.8 |
| 20260505164503 | 21 | 260 | 1.6 | 11.3 | 0.00 | 0.00 | 0.00 | 34 | 1003.9 |
| 20260505163006 | 21 | 336 | 0.0 | 6.4 | 0.00 | 0.00 | 0.00 | 33 | 1003.9 |
| 20260505161504 | 21 | 341 | 0.0 | 4.8 | 0.00 | 0.00 | 0.00 | 34 | 1003.7 |
| 20260505153059 | 20 | 347 | 0.0 | 1.6 | 0.00 | 0.00 | 0.00 | 36 | 1003.7 |
| 20260505151558 | 20 | 346 | 0.0 | 4.8 | 0.00 | 0.00 | 0.00 | 38 | 1003.8 |
| 20260505150106 | 19 | 317 | 0.0 | 1.6 | 0.00 | 0.00 | 0.00 | 39 | 1003.9 |
| 20260505124536 | 18 | 314 | 0.0 | 4.8 | 0.00 | 0.00 | 0.00 | 38 | 1003.5 |
| 20260505123034 | 18 | 316 | 0.0 | 4.8 | 0.00 | 0.00 | 0.00 | 38 | 1003.3 |
| 20260505121537 | 18 | 317 | 0.0 | 4.8 | 0.00 | 0.00 | 0.00 | 38 | 1003.2 |
| 20260505120031 | 18 | 317 | 0.0 | 3.2 | 0.00 | 0.00 | 0.00 | 37 | 1003.0 |
| 20260505114528 | 18 | 317 | 0.0 | 4.8 | 0.00 | 0.00 | 0.00 | 36 | 1003.1 |
| 20260505113026 | 18 | 317 | 0.0 | 4.8 | 0.00 | 0.00 | 0.00 | 35 | 1003.0 |
| 20260505111525 | 18 | 319 | 0.0 | 6.4 | 0.00 | 0.00 | 0.00 | 34 | 1002.8 |